Location: Argonnex
(45.9500°N, 6.1333°E)
Time: 06:26:21
(UTC+00:00)

Cosmos 2266 Rocket - Pass Details

Date: 06 August 2024
Orbit: 933 x 1008 km, 82.9° (Epoch: 08 September)

Event Time Altitude Azimuth Distance (km) Brightness Sun altitude
Rises 01:49:02 0° 351° (N) 3,605 7.7 -21.1°
Reaches altitude 10° 01:51:31 10° 351° (N) 2,654 6.9 -20.9°
Maximum altitude 01:57:35 89° 259° (W) 941 3.8 -20.3°
Enters shadow 02:01:17 25° 174° (S) 1,791 5.0 -19.9°
